User: anonymous   Login
Location: Allonne
(49.4086°N, 2.1143°E)
Time: 00:37:08
(UTC+00:00)
Language:

BlueWalker 3 - Orbit

View from above orbital plane
View from above orbital plane
View from above satellite
View from above satellite

Ground track
Ground track

The orbit data is extracted from the following two-line orbital elements,

1 53807U 22111AL  23154.35251392  .00006171  00000-0  29063-3 0  9993
2 53807  53.1972 136.5605 0013482  11.0023 349.1266 15.20766732 40344
Epoch (UTC): 03 June 2023 08:27:37
Eccentricity: 0.0013482
inclination: 53.1972°
perigee height: 494 km
apogee height: 513 km
right ascension of ascending node: 136.5605°
argument of perigee: 11.0023°
revolutions per day: 15.20766732
mean anomaly at epoch: 349.1266°
orbit number at epoch: 4034

The dashed part of the orbit path shows where the satellite is in the earth's shadow,  

DLR